Location: Allos
(44.2333°N, 6.6333°E)
Time: 17:55:23
(UTC+00:00)

Cosmos 1656 Rocket - Visible Passes

Search period start: 16 April 2021 00:00
Search period end: 26 April 2021 00:00
Orbit: 796 x 846 km, 71.1° (Epoch: 15 April)

Date Brightness Start Highest point End Pass type
(mag) Time Alt. Az. Time Alt. Az. Time Alt. Az.
16 Apr 4.3 04:16:42 10° S 04:21:58 56° ESE 04:27:17 10° NNE visible
17 Apr 4.6 03:55:32 10° S 04:00:40 47° ESE 04:05:53 10° NE visible
18 Apr 4.9 03:34:24 10° S 03:39:24 40° ESE 03:44:27 10° NE visible
19 Apr 5.1 03:13:21 10° SSE 03:18:08 33° ESE 03:22:58 10° NE visible
20 Apr 5.3 02:52:20 10° SSE 02:56:53 28° ESE 03:01:27 10° NE visible
21 Apr 5.5 02:31:25 10° SSE 02:35:39 24° ESE 02:39:54 10° NE visible
22 Apr 5.7 02:10:35 10° SE 02:14:25 20° E 02:18:16 10° NE visible
22 Apr 3.8 03:52:08 10° SW 03:57:28 59° WNW 04:02:53 10° NNE visible
23 Apr 5.9 01:49:52 10° SE 01:53:12 17° E 01:56:32 10° ENE visible
23 Apr 3.6 03:31:07 12° SSW 03:36:06 70° WNW 03:41:35 10° NNE visible
24 Apr 6.0 01:29:20 10° SE 01:31:59 14° E 01:34:39 10° ENE visible
24 Apr 3.6 03:10:36 18° SSW 03:14:46 82° WNW 03:20:16 10° NNE visible
25 Apr 6.1 01:09:13 10° ESE 01:10:48 11° E 01:12:24 10° ENE visible
25 Apr 3.6 02:50:02 24° SSW 02:53:26 85° ESE 02:58:56 10° NNE visible
